Time,TemperatureF,DewpointF,PressureIn,WindDirection,WindDirectionDegrees,WindSpeedMPH,WindSpeedGustMPH,Humidity,HourlyPrecipIn,Conditions,Clouds,dailyrainin,SoftwareType,DateUTC
2013-03-11 00:07:00,44.8,40.5,0.00,North,0,0.0,0.0,85,0.00,,,-99.99,pyweather 0.1,2013-03-11 07:07:00,
2013-03-11 00:15:00,44.8,40.5,0.00,North,0,0.0,0.0,85,0.00,,,-99.99,pyweather 0.1,2013-03-11 07:15:00,
2013-03-11 00:23:00,44.6,40.4,0.00,North,0,0.0,0.0,85,0.00,,,-99.99,pyweather 0.1,2013-03-11 07:23:00,
2013-03-11 00:31:00,44.6,40.4,0.00,North,0,0.0,0.0,85,0.00,,,-99.99,pyweather 0.1,2013-03-11 07:31:00,
2013-03-11 00:39:00,44.6,40.4,0.00,North,0,0.0,0.0,85,0.00,,,-99.99,pyweather 0.1,2013-03-11 07:39:00,
2013-03-11 00:47:00,44.6,40.7,0.00,North,0,0.0,0.0,86,0.00,,,-99.99,pyweather 0.1,2013-03-11 07:47:00,
2013-03-11 00:55:00,44.4,40.5,0.00,North,0,0.0,0.0,86,0.00,,,-99.99,pyweather 0.1,2013-03-11 07:55:00,
2013-03-11 01:03:00,44.4,40.5,0.00,North,0,0.0,0.0,86,0.00,,,-99.99,pyweather 0.1,2013-03-11 08:03:00,
2013-03-11 01:11:00,44.4,40.5,0.00,North,0,0.0,0.0,86,0.00,,,-99.99,pyweather 0.1,2013-03-11 08:11:00,
2013-03-11 01:19:00,44.4,40.8,0.00,North,0,0.0,0.0,87,0.00,,,-99.99,pyweather 0.1,2013-03-11 08:19:00,
2013-03-11 01:27:00,44.4,40.8,0.00,North,0,0.0,0.0,87,0.00,,,-99.99,pyweather 0.1,2013-03-11 08:27:00,
2013-03-11 01:35:00,44.4,40.8,0.00,North,0,0.0,0.0,87,0.00,,,-99.99,pyweather 0.1,2013-03-11 08:35:00,
2013-03-11 01:43:00,44.4,40.8,0.00,North,0,0.0,0.0,87,0.00,,,-99.99,pyweather 0.1,2013-03-11 08:43:00,
2013-03-11 01:51:00,44.4,40.8,0.00,North,0,0.0,0.0,87,0.00,,,-99.99,pyweather 0.1,2013-03-11 08:51:00,
2013-03-11 01:59:00,44.4,40.8,0.00,North,0,0.0,0.0,87,0.00,,,-99.99,pyweather 0.1,2013-03-11 08:59:00,
2013-03-11 02:07:00,44.4,40.8,0.00,North,0,0.0,0.0,87,0.00,,,-99.99,pyweather 0.1,2013-03-11 09:07:00,
2013-03-11 02:15:00,44.4,40.8,0.00,North,0,0.0,0.0,87,0.00,,,-99.99,pyweather 0.1,2013-03-11 09:15:00,
2013-03-11 02:23:00,44.4,40.8,0.00,North,0,0.0,0.0,87,0.00,,,-99.99,pyweather 0.1,2013-03-11 09:23:00,
2013-03-11 02:32:00,44.4,40.8,0.00,North,0,0.0,0.0,87,0.00,,,-99.99,pyweather 0.1,2013-03-11 09:32:00,
2013-03-11 02:39:00,44.4,40.8,0.00,North,0,0.0,0.0,87,0.00,,,-99.99,pyweather 0.1,2013-03-11 09:39:00,
2013-03-11 02:48:00,44.4,40.8,0.00,North,0,0.0,0.0,87,0.00,,,-99.99,pyweather 0.1,2013-03-11 09:48:00,
2013-03-11 02:56:00,44.2,40.9,0.00,North,0,0.0,0.0,88,0.00,,,-99.99,pyweather 0.1,2013-03-11 09:56:00,
2013-03-11 03:04:00,44.2,40.9,0.00,North,0,0.0,0.0,88,0.00,,,-99.99,pyweather 0.1,2013-03-11 10:04:00,
2013-03-11 03:12:00,44.2,40.9,0.00,North,0,0.0,0.0,88,0.00,,,-99.99,pyweather 0.1,2013-03-11 10:12:00,
2013-03-11 03:20:00,44.2,40.9,0.00,North,0,0.0,0.0,88,0.00,,,-99.99,pyweather 0.1,2013-03-11 10:20:00,
2013-03-11 03:28:00,44.2,40.9,0.00,North,0,0.0,0.0,88,0.00,,,-99.99,pyweather 0.1,2013-03-11 10:28:00,
2013-03-11 03:36:00,44.2,40.9,0.00,North,0,0.0,0.0,88,0.00,,,-99.99,pyweather 0.1,2013-03-11 10:36:00,
2013-03-11 03:44:00,44.2,40.9,0.00,North,0,0.0,0.0,88,0.00,,,-99.99,pyweather 0.1,2013-03-11 10:44:00,
2013-03-11 03:52:00,44.2,40.9,0.00,North,0,0.0,0.0,88,0.00,,,-99.99,pyweather 0.1,2013-03-11 10:52:00,
2013-03-11 04:00:00,44.2,40.9,0.00,North,0,0.0,0.0,88,0.00,,,-99.99,pyweather 0.1,2013-03-11 11:00:00,
2013-03-11 04:08:00,44.2,40.9,0.00,North,0,0.0,0.0,88,0.00,,,-99.99,pyweather 0.1,2013-03-11 11:08:00,
2013-03-11 04:24:00,44.1,40.7,0.00,North,0,0.0,0.0,88,0.00,,,-99.99,pyweather 0.1,2013-03-11 11:24:00,
2013-03-11 04:40:00,43.7,40.4,0.00,North,0,0.0,0.0,88,0.00,,,-99.99,pyweather 0.1,2013-03-11 11:40:00,
2013-03-11 04:48:00,43.7,40.4,0.00,North,0,0.0,0.0,88,0.00,,,-99.99,pyweather 0.1,2013-03-11 11:48:00,
2013-03-11 05:04:00,43.5,40.5,0.00,North,0,0.0,0.0,89,0.00,,,-99.99,pyweather 0.1,2013-03-11 12:04:00,
2013-03-11 05:12:00,43.5,40.5,0.00,North,0,0.0,0.0,89,0.00,,,-99.99,pyweather 0.1,2013-03-11 12:12:00,
2013-03-11 05:20:00,43.5,40.5,0.00,North,0,0.0,0.0,89,0.00,,,-99.99,pyweather 0.1,2013-03-11 12:20:00,
2013-03-11 05:28:00,43.5,40.5,0.00,North,0,0.0,0.0,89,0.00,,,-99.99,pyweather 0.1,2013-03-11 12:28:00,
2013-03-11 05:44:00,43.3,40.3,0.00,North,0,0.0,0.0,89,0.00,,,-99.99,pyweather 0.1,2013-03-11 12:44:00,
2013-03-11 05:52:00,43.3,40.3,0.00,North,0,0.0,0.0,89,0.00,,,-99.99,pyweather 0.1,2013-03-11 12:52:00,
2013-03-11 06:00:00,43.3,40.3,0.00,North,0,0.0,0.0,89,0.00,,,-99.99,pyweather 0.1,2013-03-11 13:00:00,
2013-03-11 06:08:00,43.3,40.3,0.00,North,0,0.0,0.0,89,0.00,,,-99.99,pyweather 0.1,2013-03-11 13:08:00,
2013-03-11 06:24:00,43.0,40.0,0.00,North,0,0.0,0.0,89,0.00,,,-99.99,pyweather 0.1,2013-03-11 13:24:00,
2013-03-11 06:32:00,43.0,40.0,0.00,North,0,0.0,0.0,89,0.00,,,-99.99,pyweather 0.1,2013-03-11 13:32:00,
2013-03-11 06:40:00,42.8,39.8,0.00,North,0,0.0,0.0,89,0.00,,,-99.99,pyweather 0.1,2013-03-11 13:40:00,
2013-03-11 06:48:00,42.8,39.8,0.00,North,0,0.0,0.0,89,0.00,,,-99.99,pyweather 0.1,2013-03-11 13:48:00,
2013-03-11 06:56:00,42.4,39.4,0.00,North,0,0.0,0.0,89,0.00,,,-99.99,pyweather 0.1,2013-03-11 13:56:00,
2013-03-11 07:04:00,42.4,39.4,0.00,North,0,0.0,0.0,89,0.00,,,-99.99,pyweather 0.1,2013-03-11 14:04:00,
2013-03-11 07:12:00,42.4,39.4,0.00,North,0,0.0,0.0,89,0.00,,,-99.99,pyweather 0.1,2013-03-11 14:12:00,
2013-03-11 07:20:00,42.3,39.3,0.00,North,0,0.0,0.0,89,0.00,,,-99.99,pyweather 0.1,2013-03-11 14:20:00,
2013-03-11 07:28:00,42.1,39.1,0.00,North,0,0.0,0.0,89,0.00,,,-99.99,pyweather 0.1,2013-03-11 14:28:00,
2013-03-11 07:36:00,41.9,38.9,0.00,North,0,0.0,0.0,89,0.00,,,-99.99,pyweather 0.1,2013-03-11 14:36:00,
2013-03-11 07:44:00,41.7,38.7,0.00,North,0,0.0,0.0,89,0.00,,,-99.99,pyweather 0.1,2013-03-11 14:44:00,
2013-03-11 07:52:00,41.5,38.5,0.00,North,0,0.0,0.0,89,0.00,,,-99.99,pyweather 0.1,2013-03-11 14:52:00,
2013-03-11 08:00:00,41.7,39.0,0.00,North,0,0.0,0.0,90,0.00,,,-99.99,pyweather 0.1,2013-03-11 15:00:00,
2013-03-11 08:08:00,41.9,39.2,0.00,North,0,0.0,0.0,90,0.00,,,-99.99,pyweather 0.1,2013-03-11 15:08:00,
2013-03-11 08:16:00,42.1,39.4,0.00,North,0,0.0,0.0,90,0.00,,,-99.99,pyweather 0.1,2013-03-11 15:16:00,
2013-03-11 08:24:00,42.4,39.7,0.00,North,0,0.0,0.0,90,0.00,,,-99.99,pyweather 0.1,2013-03-11 15:24:00,
2013-03-11 08:32:00,42.6,39.9,0.00,North,0,0.0,0.0,90,0.00,,,-99.99,pyweather 0.1,2013-03-11 15:32:00,
2013-03-11 08:40:00,42.8,40.1,0.00,North,0,0.0,0.0,90,0.00,,,-99.99,pyweather 0.1,2013-03-11 15:40:00,
2013-03-11 08:48:00,42.8,40.1,0.00,North,0,0.0,0.0,90,0.00,,,-99.99,pyweather 0.1,2013-03-11 15:48:00,
2013-03-11 08:56:00,43.0,40.2,0.00,North,0,0.0,0.0,90,0.00,,,-99.99,pyweather 0.1,2013-03-11 15:56:00,
2013-03-11 09:04:00,43.5,40.8,0.00,North,0,0.0,0.0,90,0.00,,,-99.99,pyweather 0.1,2013-03-11 16:04:00,
2013-03-11 09:12:00,43.7,41.0,0.00,North,0,0.0,0.0,90,0.00,,,-99.99,pyweather 0.1,2013-03-11 16:12:00,
2013-03-11 09:20:00,44.2,41.5,0.00,North,0,0.0,0.0,90,0.00,,,-99.99,pyweather 0.1,2013-03-11 16:20:00,
2013-03-11 09:28:00,45.3,42.3,0.00,North,0,0.0,0.0,89,0.00,,,-99.99,pyweather 0.1,2013-03-11 16:28:00,
2013-03-11 09:36:00,45.9,41.9,0.00,North,0,0.0,0.0,86,0.00,,,-99.99,pyweather 0.1,2013-03-11 16:36:00,
2013-03-11 09:44:00,45.9,41.3,0.00,North,0,0.0,0.0,84,0.00,,,-99.99,pyweather 0.1,2013-03-11 16:44:00,
2013-03-11 09:52:00,46.0,41.2,0.00,North,0,0.0,0.0,83,0.00,,,-99.99,pyweather 0.1,2013-03-11 16:52:00,
2013-03-11 10:00:00,46.2,40.1,0.00,North,0,0.0,0.0,79,0.00,,,-99.99,pyweather 0.1,2013-03-11 17:00:00,
2013-03-11 10:08:00,46.2,38.4,0.00,North,0,0.0,0.0,74,0.00,,,-99.99,pyweather 0.1,2013-03-11 17:08:00,
2013-03-11 10:17:00,46.2,37.3,0.00,North,0,0.0,0.0,71,0.00,,,-99.99,pyweather 0.1,2013-03-11 17:17:00,
2013-03-11 10:24:00,46.9,38.8,0.00,North,0,0.0,0.0,73,0.00,,,-99.99,pyweather 0.1,2013-03-11 17:24:00,
2013-03-11 10:32:00,46.9,36.2,0.00,North,0,0.0,0.0,66,0.00,,,-99.99,pyweather 0.1,2013-03-11 17:32:00,
2013-03-11 10:41:00,47.5,37.5,0.00,North,0,0.0,0.0,68,0.00,,,-99.99,pyweather 0.1,2013-03-11 17:41:00,
2013-03-11 10:49:00,48.0,37.6,0.00,North,0,0.0,0.0,67,0.00,,,-99.99,pyweather 0.1,2013-03-11 17:49:00,
2013-03-11 10:57:00,48.9,36.9,0.00,North,0,0.0,0.0,63,0.00,,,-99.99,pyweather 0.1,2013-03-11 17:57:00,
2013-03-11 11:05:00,50.2,36.8,0.00,North,0,0.0,0.0,60,0.00,,,-99.99,pyweather 0.1,2013-03-11 18:05:00,
2013-03-11 11:13:00,50.7,34.7,0.00,North,0,0.0,0.0,54,0.00,,,-99.99,pyweather 0.1,2013-03-11 18:13:00,
2013-03-11 11:21:00,50.5,35.0,0.00,North,0,0.0,0.0,55,0.00,,,-99.99,pyweather 0.1,2013-03-11 18:21:00,
2013-03-11 11:29:00,50.5,35.0,0.00,North,0,0.0,0.0,55,0.00,,,-99.99,pyweather 0.1,2013-03-11 18:29:00,
2013-03-11 11:37:00,50.4,34.4,0.00,North,0,0.0,0.0,54,0.00,,,-99.99,pyweather 0.1,2013-03-11 18:37:00,
2013-03-11 11:45:00,50.5,34.5,0.00,North,0,0.0,0.0,54,0.00,,,-99.99,pyweather 0.1,2013-03-11 18:45:00,
2013-03-11 11:53:00,51.1,36.0,0.00,North,0,0.0,0.0,56,0.00,,,-99.99,pyweather 0.1,2013-03-11 18:53:00,
2013-03-11 12:01:00,52.0,34.9,0.00,North,0,0.0,0.0,52,0.00,,,-99.99,pyweather 0.1,2013-03-11 19:01:00,
2013-03-11 12:09:00,52.3,34.3,0.00,North,0,0.0,0.0,50,0.00,,,-99.99,pyweather 0.1,2013-03-11 19:09:00,
2013-03-11 12:17:00,52.2,33.6,0.00,North,0,0.0,0.0,49,0.00,,,-99.99,pyweather 0.1,2013-03-11 19:17:00,
2013-03-11 12:25:00,52.0,33.4,0.00,North,0,0.0,0.0,49,0.00,,,-99.99,pyweather 0.1,2013-03-11 19:25:00,
2013-03-11 12:33:00,51.6,33.1,0.00,North,0,0.0,0.0,49,0.00,,,-99.99,pyweather 0.1,2013-03-11 19:33:00,
2013-03-11 12:49:00,51.8,33.3,0.00,North,0,0.0,0.0,49,0.00,,,-99.99,pyweather 0.1,2013-03-11 19:49:00,
2013-03-11 12:57:00,51.8,32.8,0.00,North,0,0.0,0.0,48,0.00,,,-99.99,pyweather 0.1,2013-03-11 19:57:00,
2013-03-11 13:05:00,51.6,32.6,0.00,North,0,0.0,0.0,48,0.00,,,-99.99,pyweather 0.1,2013-03-11 20:05:00,
2013-03-11 13:13:00,51.8,33.3,0.00,North,0,0.0,0.0,49,0.00,,,-99.99,pyweather 0.1,2013-03-11 20:13:00,
2013-03-11 13:21:00,52.0,32.9,0.00,North,0,0.0,0.0,48,0.00,,,-99.99,pyweather 0.1,2013-03-11 20:21:00,
2013-03-11 13:29:00,51.8,32.2,0.00,North,0,0.0,0.0,47,0.00,,,-99.99,pyweather 0.1,2013-03-11 20:29:00,
2013-03-11 13:37:00,51.6,33.1,0.00,North,0,0.0,0.0,49,0.00,,,-99.99,pyweather 0.1,2013-03-11 20:37:00,
2013-03-11 13:45:00,52.2,34.1,0.00,North,0,0.0,0.0,50,0.00,,,-99.99,pyweather 0.1,2013-03-11 20:45:00,
2013-03-11 13:53:00,52.5,33.9,0.00,North,0,0.0,0.0,49,0.00,,,-99.99,pyweather 0.1,2013-03-11 20:53:00,
2013-03-11 14:09:00,52.5,33.4,0.00,North,0,0.0,0.0,48,0.00,,,-99.99,pyweather 0.1,2013-03-11 21:09:00,
2013-03-11 14:17:00,53.1,34.4,0.00,North,0,0.0,0.0,49,0.00,,,-99.99,pyweather 0.1,2013-03-11 21:17:00,
2013-03-11 14:25:00,53.1,33.9,0.00,North,0,0.0,0.0,48,0.00,,,-99.99,pyweather 0.1,2013-03-11 21:25:00,
2013-03-11 14:33:00,53.8,34.0,0.00,North,0,0.0,0.0,47,0.00,,,-99.99,pyweather 0.1,2013-03-11 21:33:00,
2013-03-11 14:41:00,54.0,34.2,0.00,North,0,0.0,0.0,47,0.00,,,-99.99,pyweather 0.1,2013-03-11 21:41:00,
2013-03-11 14:49:00,54.0,34.7,0.00,North,0,0.0,0.0,48,0.00,,,-99.99,pyweather 0.1,2013-03-11 21:49:00,
2013-03-11 14:57:00,54.0,34.7,0.00,North,0,0.0,0.0,48,0.00,,,-99.99,pyweather 0.1,2013-03-11 21:57:00,
2013-03-11 15:05:00,54.0,34.2,0.00,North,0,0.0,0.0,47,0.00,,,-99.99,pyweather 0.1,2013-03-11 22:05:00,
2013-03-11 15:13:00,54.1,34.9,0.00,North,0,0.0,0.0,48,0.00,,,-99.99,pyweather 0.1,2013-03-11 22:13:00,
2013-03-11 15:21:00,54.0,34.7,0.00,North,0,0.0,0.0,48,0.00,,,-99.99,pyweather 0.1,2013-03-11 22:21:00,
2013-03-11 15:29:00,54.0,34.7,0.00,North,0,0.0,0.0,48,0.00,,,-99.99,pyweather 0.1,2013-03-11 22:29:00,
2013-03-11 15:37:00,53.6,34.4,0.00,North,0,0.0,0.0,48,0.00,,,-99.99,pyweather 0.1,2013-03-11 22:37:00,
2013-03-11 15:45:00,53.2,34.6,0.00,North,0,0.0,0.0,49,0.00,,,-99.99,pyweather 0.1,2013-03-11 22:45:00,
2013-03-11 15:53:00,52.9,34.3,0.00,North,0,0.0,0.0,49,0.00,,,-99.99,pyweather 0.1,2013-03-11 22:53:00,
2013-03-11 16:01:00,52.7,34.6,0.00,North,0,0.0,0.0,50,0.00,,,-99.99,pyweather 0.1,2013-03-11 23:01:00,
2013-03-11 16:09:00,52.5,34.9,0.00,North,0,0.0,0.0,51,0.00,,,-99.99,pyweather 0.1,2013-03-11 23:09:00,
2013-03-11 16:17:00,52.3,35.2,0.00,North,0,0.0,0.0,52,0.00,,,-99.99,pyweather 0.1,2013-03-11 23:17:00,
2013-03-11 16:25:00,52.3,35.2,0.00,North,0,0.0,0.0,52,0.00,,,-99.99,pyweather 0.1,2013-03-11 23:25:00,
2013-03-11 16:33:00,52.3,35.2,0.00,North,0,0.0,0.0,52,0.00,,,-99.99,pyweather 0.1,2013-03-11 23:33:00,
2013-03-11 16:41:00,52.3,35.2,0.00,North,0,0.0,0.0,52,0.00,,,-99.99,pyweather 0.1,2013-03-11 23:41:00,
2013-03-11 16:49:00,52.3,35.2,0.00,North,0,0.0,0.0,52,0.00,,,-99.99,pyweather 0.1,2013-03-11 23:49:00,
2013-03-11 16:57:00,52.2,35.6,0.00,North,0,0.0,0.0,53,0.00,,,-99.99,pyweather 0.1,2013-03-11 23:57:00,
2013-03-11 17:05:00,52.2,35.6,0.00,North,0,0.0,0.0,53,0.00,,,-99.99,pyweather 0.1,2013-03-12 00:05:00,
2013-03-11 17:13:00,52.0,35.4,0.00,North,0,0.0,0.0,53,0.00,,,-99.99,pyweather 0.1,2013-03-12 00:13:00,
2013-03-11 17:21:00,52.0,35.4,0.00,North,0,0.0,0.0,53,0.00,,,-99.99,pyweather 0.1,2013-03-12 00:21:00,
2013-03-11 17:29:00,51.8,35.7,0.00,North,0,0.0,0.0,54,0.00,,,-99.99,pyweather 0.1,2013-03-12 00:29:00,
2013-03-11 17:37:00,51.6,35.5,0.00,North,0,0.0,0.0,54,0.00,,,-99.99,pyweather 0.1,2013-03-12 00:37:00,
2013-03-11 17:45:00,51.6,36.0,0.00,North,0,0.0,0.0,55,0.00,,,-99.99,pyweather 0.1,2013-03-12 00:45:00,
2013-03-11 17:53:00,51.4,36.3,0.00,North,0,0.0,0.0,56,0.00,,,-99.99,pyweather 0.1,2013-03-12 00:53:00,
2013-03-11 18:01:00,51.3,37.0,0.00,North,0,0.0,0.0,58,0.00,,,-99.99,pyweather 0.1,2013-03-12 01:01:00,
2013-03-11 18:09:00,51.1,37.3,0.00,North,0,0.0,0.0,59,0.00,,,-99.99,pyweather 0.1,2013-03-12 01:09:00,
2013-03-11 18:17:00,50.9,38.0,0.00,North,0,0.0,0.0,61,0.00,,,-99.99,pyweather 0.1,2013-03-12 01:17:00,
2013-03-11 18:25:00,50.5,38.4,0.00,North,0,0.0,0.0,63,0.00,,,-99.99,pyweather 0.1,2013-03-12 01:25:00,
2013-03-11 18:33:00,50.4,38.7,0.00,North,0,0.0,0.0,64,0.00,,,-99.99,pyweather 0.1,2013-03-12 01:33:00,
2013-03-11 18:42:00,50.0,38.7,0.00,North,0,0.0,0.0,65,0.00,,,-99.99,pyweather 0.1,2013-03-12 01:42:00,
2013-03-11 18:50:00,49.6,39.2,0.00,North,0,0.0,0.0,67,0.00,,,-99.99,pyweather 0.1,2013-03-12 01:50:00,
2013-03-11 18:58:00,49.3,39.2,0.00,North,0,0.0,0.0,68,0.00,,,-99.99,pyweather 0.1,2013-03-12 01:58:00,
2013-03-11 19:06:00,49.1,39.4,0.00,North,0,0.0,0.0,69,0.00,,,-99.99,pyweather 0.1,2013-03-12 02:06:00,
2013-03-11 19:14:00,48.7,39.4,0.00,North,0,0.0,0.0,70,0.00,,,-99.99,pyweather 0.1,2013-03-12 02:14:00,
2013-03-11 19:22:00,48.6,40.0,0.00,North,0,0.0,0.0,72,0.00,,,-99.99,pyweather 0.1,2013-03-12 02:22:00,
2013-03-11 19:30:00,48.4,40.1,0.00,North,0,0.0,0.0,73,0.04,,,-99.99,pyweather 0.1,2013-03-12 02:30:00,
2013-03-11 19:38:00,48.4,40.5,0.00,North,0,0.0,0.0,74,0.04,,,-99.99,pyweather 0.1,2013-03-12 02:38:00,
2013-03-11 19:46:00,48.2,40.7,0.00,North,0,0.0,0.0,75,0.04,,,-99.99,pyweather 0.1,2013-03-12 02:46:00,
2013-03-11 19:54:00,48.2,40.7,0.00,North,0,0.0,0.0,75,0.04,,,-99.99,pyweather 0.1,2013-03-12 02:54:00,
2013-03-11 20:02:00,48.2,41.0,0.00,North,0,0.0,0.0,76,0.04,,,-99.99,pyweather 0.1,2013-03-12 03:02:00,
2013-03-11 20:10:00,48.0,41.2,0.00,North,0,0.0,0.0,77,0.04,,,-99.99,pyweather 0.1,2013-03-12 03:10:00,
2013-03-11 20:18:00,48.0,41.5,0.00,North,0,0.0,0.0,78,0.04,,,-99.99,pyweather 0.1,2013-03-12 03:18:00,
2013-03-11 20:26:00,48.0,41.8,0.00,North,0,0.0,0.0,79,0.00,,,-99.99,pyweather 0.1,2013-03-12 03:26:00,
2013-03-11 20:34:00,48.0,42.5,0.00,North,0,0.0,0.0,81,0.00,,,-99.99,pyweather 0.1,2013-03-12 03:34:00,
2013-03-11 20:42:00,48.0,42.8,0.00,North,0,0.0,0.0,82,0.00,,,-99.99,pyweather 0.1,2013-03-12 03:42:00,
2013-03-11 20:50:00,48.0,42.8,0.00,North,0,0.0,0.0,82,0.00,,,-99.99,pyweather 0.1,2013-03-12 03:50:00,
2013-03-11 20:58:00,48.0,43.1,0.00,North,0,0.0,0.0,83,0.00,,,-99.99,pyweather 0.1,2013-03-12 03:58:00,
2013-03-11 21:06:00,48.0,43.1,0.00,North,0,0.0,0.0,83,0.00,,,-99.99,pyweather 0.1,2013-03-12 04:06:00,
2013-03-11 21:14:00,48.0,43.1,0.00,North,0,0.0,0.0,83,0.00,,,-99.99,pyweather 0.1,2013-03-12 04:14:00,
2013-03-11 21:22:00,48.0,43.4,0.00,North,0,0.0,0.0,84,0.00,,,-99.99,pyweather 0.1,2013-03-12 04:22:00,
2013-03-11 21:30:00,48.0,43.4,0.00,North,0,0.0,0.0,84,0.00,,,-99.99,pyweather 0.1,2013-03-12 04:30:00,
2013-03-11 21:39:00,48.0,43.4,0.00,North,0,0.0,0.0,84,0.00,,,-99.99,pyweather 0.1,2013-03-12 04:39:00,
2013-03-11 21:47:00,48.0,43.4,0.00,North,0,0.0,0.0,84,0.00,,,-99.99,pyweather 0.1,2013-03-12 04:47:00,
2013-03-11 21:55:00,48.0,43.7,0.00,North,0,0.0,0.0,85,0.00,,,-99.99,pyweather 0.1,2013-03-12 04:55:00,
2013-03-11 22:03:00,47.8,43.6,0.00,North,0,0.0,0.0,85,0.00,,,-99.99,pyweather 0.1,2013-03-12 05:03:00,
2013-03-11 22:11:00,48.0,43.7,0.00,North,0,0.0,0.0,85,0.00,,,-99.99,pyweather 0.1,2013-03-12 05:11:00,
2013-03-11 22:19:00,47.8,43.6,0.00,North,0,0.0,0.0,85,0.00,,,-99.99,pyweather 0.1,2013-03-12 05:19:00,
2013-03-11 22:27:00,47.8,43.9,0.00,North,0,0.0,0.0,86,0.00,,,-99.99,pyweather 0.1,2013-03-12 05:27:00,
2013-03-11 22:35:00,47.8,43.9,0.00,North,0,0.0,0.0,86,0.00,,,-99.99,pyweather 0.1,2013-03-12 05:35:00,
2013-03-11 22:43:00,47.8,43.9,0.00,North,0,0.0,0.0,86,0.00,,,-99.99,pyweather 0.1,2013-03-12 05:43:00,
2013-03-11 22:51:00,47.8,43.9,0.00,North,0,0.0,0.0,86,0.00,,,-99.99,pyweather 0.1,2013-03-12 05:51:00,
2013-03-11 22:59:00,47.8,43.9,0.00,North,0,0.0,0.0,86,0.00,,,-99.99,pyweather 0.1,2013-03-12 05:59:00,
2013-03-11 23:07:00,47.8,43.9,0.00,North,0,0.0,0.0,86,0.00,,,-99.99,pyweather 0.1,2013-03-12 06:07:00,
2013-03-11 23:15:00,47.8,44.2,0.00,North,0,0.0,0.0,87,0.00,,,-99.99,pyweather 0.1,2013-03-12 06:15:00,
2013-03-11 23:23:00,47.8,44.2,0.00,North,0,0.0,0.0,87,0.00,,,-99.99,pyweather 0.1,2013-03-12 06:23:00,
2013-03-11 23:31:00,47.8,44.2,0.00,North,0,0.0,0.0,87,0.00,,,-99.99,pyweather 0.1,2013-03-12 06:31:00,
2013-03-11 23:39:00,47.8,44.2,0.00,North,0,0.0,0.0,87,0.00,,,-99.99,pyweather 0.1,2013-03-12 06:39:00,
2013-03-11 23:47:00,48.0,44.6,0.00,North,0,0.0,0.0,88,0.00,,,-99.99,pyweather 0.1,2013-03-12 06:47:00,
2013-03-11 23:55:00,48.0,44.6,0.00,North,0,0.0,0.0,88,0.00,,,-99.99,pyweather 0.1,2013-03-12 06:55:00,